TimePST,TemperatureF,Dew PointF,Humidity,Sea Level PressureIn,VisibilityMPH,Wind Direction,Wind SpeedMPH,Gust SpeedMPH,PrecipitationIn,Events,Conditions,WindDirDegrees,DateUTC
12:13 AM,46.4,44.6,93,30.16,10.0,SE,4.6,-,N/A,,Scattered Clouds,130,2012-12-11 08:13:00
12:21 AM,44.6,44.6,100,30.16,10.0,SE,5.8,-,N/A,,Mostly Cloudy,130,2012-12-11 08:21:00
12:56 AM,43.0,42.1,97,30.14,6.0,ESE,3.5,-,N/A,,Scattered Clouds,110,2012-12-11 08:56:00
1:08 AM,42.8,42.8,100,30.14,1.5,SE,4.6,-,N/A,,Partly Cloudy,130,2012-12-11 09:08:00
1:11 AM,42.8,42.8,100,30.14,1.0,ESE,4.6,-,N/A,,Mist,120,2012-12-11 09:11:00
1:18 AM,42.8,41.0,93,30.13,1.2,ESE,3.5,-,N/A,,Partly Cloudy,120,2012-12-11 09:18:00
1:21 AM,42.8,42.8,100,30.13,2.0,ESE,3.5,-,N/A,,Partly Cloudy,120,2012-12-11 09:21:00
1:29 AM,44.6,44.6,100,30.13,6.0,SE,3.5,-,N/A,,Partly Cloudy,140,2012-12-11 09:29:00
1:56 AM,42.1,41.0,96,30.12,1.8,SE,4.6,-,N/A,,Scattered Clouds,140,2012-12-11 09:56:00
2:02 AM,44.6,42.8,93,30.12,2.5,SE,4.6,-,N/A,,Mostly Cloudy,140,2012-12-11 10:02:00
2:09 AM,46.4,44.6,93,30.11,8.0,SE,5.8,-,N/A,,Mostly Cloudy,130,2012-12-11 10:09:00
2:56 AM,46.0,46.0,100,30.12,10.0,Calm,Calm,-,N/A,,Overcast,0,2012-12-11 10:56:00
3:22 AM,44.6,44.6,100,30.11,10.0,ESE,3.5,-,N/A,,Overcast,110,2012-12-11 11:22:00
3:38 AM,46.4,44.6,93,30.10,10.0,East,3.5,-,N/A,,Overcast,80,2012-12-11 11:38:00
3:56 AM,46.0,45.0,96,30.11,10.0,East,4.6,-,N/A,,Overcast,90,2012-12-11 11:56:00
4:04 AM,44.6,44.6,100,30.10,10.0,East,4.6,-,N/A,,Overcast,90,2012-12-11 12:04:00
4:56 AM,45.0,43.0,93,30.07,10.0,East,5.8,-,N/A,,Overcast,100,2012-12-11 12:56:00
5:56 AM,46.0,44.1,93,30.05,10.0,ENE,3.5,-,N/A,,Overcast,70,2012-12-11 13:56:00
6:56 AM,46.0,44.1,93,30.04,10.0,Calm,Calm,-,N/A,,Overcast,0,2012-12-11 14:56:00
7:56 AM,46.0,44.1,93,30.02,10.0,ESE,3.5,-,N/A,,Overcast,110,2012-12-11 15:56:00
9:11 AM,48.2,46.4,93,30.01,10.0,South,12.7,-,N/A,,Overcast,170,2012-12-11 17:11:00
9:48 AM,48.2,44.6,87,30.00,10.0,South,12.7,-,N/A,,Overcast,180,2012-12-11 17:48:00
9:56 AM,50.0,46.0,86,30.01,10.0,South,13.8,-,N/A,,Overcast,170,2012-12-11 17:56:00
10:33 AM,51.8,46.4,82,30.00,10.0,SSW,9.2,-,N/A,,Overcast,210,2012-12-11 18:33:00
10:42 AM,50.0,44.6,82,30.01,10.0,SW,9.2,-,N/A,,Overcast,230,2012-12-11 18:42:00
10:51 AM,50.0,44.6,82,30.00,10.0,SSW,9.2,-,N/A,,Overcast,210,2012-12-11 18:51:00
10:56 AM,50.0,44.1,80,30.01,10.0,SW,9.2,-,N/A,,Overcast,230,2012-12-11 18:56:00
11:42 AM,50.0,44.6,82,29.97,10.0,SSW,9.2,-,N/A,,Mostly Cloudy,200,2012-12-11 19:42:00
11:56 AM,50.0,43.0,77,29.98,10.0,SSW,11.5,-,N/A,,Overcast,210,2012-12-11 19:56:00
12:03 PM,50.0,42.8,76,29.97,10.0,SSW,13.8,-,N/A,,Overcast,210,2012-12-11 20:03:00
12:17 PM,50.0,42.8,76,29.95,10.0,South,12.7,-,N/A,,Overcast,180,2012-12-11 20:17:00
12:56 PM,50.0,42.1,74,29.91,10.0,South,17.3,25.3,N/A,,Overcast,170,2012-12-11 20:56:00
1:44 PM,48.2,44.6,87,29.87,2.5,SSE,18.4,26.5,0.08,Rain,Rain,160,2012-12-11 21:44:00
1:54 PM,48.2,44.6,87,29.87,3.0,South,19.6,27.6,0.11,Rain,Rain,170,2012-12-11 21:54:00
1:56 PM,48.9,45.0,86,29.87,3.0,South,21.9,27.6,0.12,Rain,Rain,170,2012-12-11 21:56:00
2:33 PM,48.2,46.4,93,29.83,5.0,SSE,18.4,25.3,0.06,Rain,Light Rain,150,2012-12-11 22:33:00
2:56 PM,48.9,46.0,90,29.82,3.0,SSE,19.6,26.5,0.12,Rain,Rain,150,2012-12-11 22:56:00
3:07 PM,48.2,46.4,93,29.80,5.0,SSE,20.7,27.6,0.01,Rain,Light Rain,150,2012-12-11 23:07:00
3:32 PM,48.2,46.4,93,29.79,5.0,SSE,19.6,26.5,0.02,Rain,Light Rain,150,2012-12-11 23:32:00
3:52 PM,48.2,46.4,93,29.78,2.5,SSE,19.6,26.5,0.03,Rain,Light Rain,160,2012-12-11 23:52:00
3:56 PM,48.0,46.0,93,29.79,2.5,SSE,18.4,26.5,0.03,Rain,Light Rain,160,2012-12-11 23:56:00
4:05 PM,48.2,46.4,93,29.78,3.0,SSE,18.4,29.9,0.01,Rain,Light Rain,150,2012-12-12 00:05:00
4:26 PM,48.2,46.4,93,29.78,5.0,SSE,15.0,25.3,0.03,Rain,Light Rain,150,2012-12-12 00:26:00
4:56 PM,48.9,46.9,93,29.79,9.0,South,19.6,26.5,0.05,Rain,Light Rain,170,2012-12-12 00:56:00
5:19 PM,50.0,48.2,94,29.78,4.0,WNW,11.5,-,0.02,Rain,Light Rain,300,2012-12-12 01:19:00
5:29 PM,48.2,46.4,93,29.79,6.0,NW,15.0,-,0.02,Rain,Light Rain,310,2012-12-12 01:29:00
5:37 PM,48.2,46.4,93,29.79,9.0,WNW,12.7,-,0.02,Rain,Light Rain,300,2012-12-12 01:37:00
5:49 PM,50.0,46.4,87,29.79,10.0,WNW,12.7,-,0.02,,Overcast,300,2012-12-12 01:49:00
5:56 PM,50.0,46.9,89,29.80,10.0,NW,11.5,-,0.02,,Overcast,310,2012-12-12 01:56:00
6:09 PM,50.0,46.4,87,29.79,10.0,NW,9.2,-,0.00,Rain,Light Rain,310,2012-12-12 02:09:00
6:35 PM,48.2,44.6,87,29.79,10.0,NW,19.6,-,0.00,Rain,Light Rain,310,2012-12-12 02:35:00
6:56 PM,50.0,45.0,83,29.80,10.0,WNW,15.0,23.0,0.00,,Overcast,300,2012-12-12 02:56:00
7:56 PM,48.9,43.0,80,29.81,10.0,WNW,18.4,29.9,0.01,,Overcast,300,2012-12-12 03:56:00
8:56 PM,48.9,41.0,74,29.81,10.0,NNW,17.3,23.0,0.00,,Overcast,330,2012-12-12 04:56:00
9:56 PM,46.9,41.0,80,29.83,10.0,North,9.2,18.4,0.00,,Overcast,360,2012-12-12 05:56:00
10:56 PM,46.0,41.0,83,29.83,10.0,Calm,Calm,-,N/A,,Mostly Cloudy,0,2012-12-12 06:56:00
11:56 PM,44.1,39.9,85,29.84,10.0,East,3.5,-,N/A,,Mostly Cloudy,80,2012-12-12 07:56:00